This is the latest recevied weather packets stored in our database for station/object KB9PVH-8. If no packets are shown the sender has not sent any weather packets the latest 10 day(s).
| Time | Temp. | Humidity | Pressure | Rain* | Wind** | Luminosity | Snow |
|---|---|---|---|---|---|---|---|
| 1787936096 | 27.22° C | - | - | 0 mm | 33.08 m/s, ° | - | - |
| 1787935254 | 27.22° C | - | - | 0 mm | 32.19 m/s, ° | - | - |
| 1787934414 | 26.67° C | - | - | 0 mm | 31.74 m/s, ° | - | - |
| 1787933682 | 26.67° C | - | - | 0 mm | 30.4 m/s, ° | - | - |
| 1787933574 | 26.67° C | - | - | 0 mm | 30.4 m/s, ° | - | - |
| 1787931894 | 25.56° C | - | - | 0 mm | 27.72 m/s, ° | - | - |
| 1787931054 | 25° C | - | - | 0 mm | 25.93 m/s, ° | - | - |
| 1787930217 | 25° C | - | - | 0 mm | 24.59 m/s, ° | - | - |
| 1787929472 | 24.44° C | - | - | 0 mm | 21.9 m/s, ° | - | - |
| 1787929374 | 24.44° C | - | - | 0 mm | 21.9 m/s, ° | - | - |
| 1787928536 | 23.33° C | - | - | 0 mm | 18.78 m/s, ° | - | - |
| 1787927851 | 22.78° C | - | - | 0 mm | 20.12 m/s, ° | - | - |
| 1787927694 | 22.78° C | - | - | 0 mm | 20.12 m/s, ° | - | - |
| 1787926854 | 20.56° C | - | - | 0 mm | 18.33 m/s, ° | - | - |
| 1787926016 | 19.44° C | - | - | 0.51 mm | 18.33 m/s, ° | - | - |
| 1787925257 | 18.89° C | - | - | 0 mm | 11.18 m/s, ° | - | - |
| 1787925174 | 18.89° C | - | - | 0 mm | 11.18 m/s, ° | - | - |
| 1787924404 | 17.78° C | - | - | 0 mm | 6.26 m/s, ° | - | - |
| 1787924334 | 17.78° C | - | - | 0 mm | 6.26 m/s, ° | - | - |
| 1787923684 | 16.11° C | - | - | 0 mm | 5.36 m/s, ° | - | - |
| 1787923626 | 16.11° C | - | - | 0 mm | 5.36 m/s, ° | - | - |
| 1787923494 | 16.11° C | - | - | 0 mm | 5.36 m/s, ° | - | - |
| 1787922654 | 15.56° C | - | - | 0 mm | 5.36 m/s, ° | - | - |
| 1787921961 | 15° C | - | - | 0 mm | 4.92 m/s, ° | - | - |
| 1787921814 | 15° C | - | - | 0 mm | 4.92 m/s, ° | - | - |
* Rain latest hour (hover to see other rain measurements)
** Current wind speed in m/s (hover to see current wind gust speed)